Location: Bremen
(53.0793°N, 8.8017°E)
Time: 02:28:16
(UTC+01:00)

Transit 2A - Pass Details

Date: 04 December 2021
Orbit: 591 x 967 km, 66.7° (Epoch: 17 January)

Event Time Altitude Azimuth Distance (km) Brightness Sun altitude
Exits shadow 03:17:18 16° 29° (NNE) 2,259 8.8 -43.8°
Drops below altitude 10° 03:18:48 10° 38° (NE) 2,707 9.3 -43.6°
Sets 03:21:43 0° 48° (NE) 3,665 10.2 -43.2°
